Flag for U.S.A. Weather past 2 weeks in Laredo, Texas, U.S.A.

Now
51 °F

Clear.


Feels Like: 47 °F
Forecast: 47 / 79 °F
Wind: 10 mph from South

Location: Laredo International Airport


UV Index: 5 (Moderate)

Visibility: 10 mi


Pressure: 30.11 "Hg

Humidity: 49%

Dew point: 32 °F

Location of LaredoLocation

Historic Weather in Laredo

°F

Laredo temperature yesterday

Maximum temperature yesterday: 70 °F (at 5:56 PM)
Minimum temperature yesterday: 49 °F (at 4:56 AM)
Average temperature yesterday: 59 °F

Past Weeks' High & Low Weather Summary

 TemperatureHumidityPressure
High100 °F (Apr 2, 4:56 PM)100% (Apr 6, 2:56 AM)30.41 "Hg (Apr 6, 2:56 AM)
Low49 °F (Apr 15, 4:56 AM)10% (Apr 7, 3:56 PM)29.59 "Hg (Apr 13, 6:56 PM)
Average74 °F52%29.91 "Hg
* Reported Apr 1 2:56 AM — Apr 16 2:56 AM, Laredo, Weather by CustomWeather, © 2014

Note: Actual official high and low records may vary slightly from our data, if they occured in-between our weather recording intervals... More about our weather records

Advertising

Historic Weather Conditions — Data for Previous 24 hours

 ConditionsComfort  
Time TempWeatherWind HumidityBarometerVisibility
2:56 AM
Apr 16
51 °FClear.10 mph49%30.11 "Hg10 mi
1:56 AM53 °FClear.12 mph45%30.11 "Hg10 mi
12:56 AM54 °FClear.13 mph42%30.13 "Hg10 mi
11:56 PM
Apr 15
56 °FClear.14 mph27%30.13 "Hg10 mi
10:56 PM57 °FClear.10 mph26%30.14 "Hg10 mi
9:56 PM59 °FClear.8 mph27%30.14 "Hg10 mi
8:56 PM62 °FSunny.7 mph22%30.13 "Hg10 mi
7:56 PM66 °FSunny.7 mph18%30.12 "Hg10 mi
5:56 PM70 °FSunny.8 mph16%30.14 "Hg10 mi
4:56 PM69 °FSunny.No wind16%30.16 "Hg10 mi
3:56 PM69 °FSunny.5 mph17%30.20 "Hg10 mi
2:56 PM67 °FSunny.3 mph17%30.25 "Hg10 mi
1:56 PM66 °FSunny.9 mph20%30.29 "Hg10 mi
12:56 PM65 °FSunny.8 mph20%30.33 "Hg10 mi
11:56 AM60 °FSunny.No wind23%30.37 "Hg10 mi
10:56 AM60 °FSunny.9 mph24%30.39 "Hg10 mi
9:56 AM57 °FSunny.9 mph28%30.40 "Hg10 mi
8:56 AM52 °FSunny.7 mph41%30.41 "Hg10 mi
7:56 AM49 °FClear.8 mph43%30.39 "Hg10 mi
6:56 AM50 °FClear.10 mph41%30.36 "Hg10 mi
5:56 AM51 °FClear.13 mph41%30.33 "Hg10 mi
4:56 AM49 °FClear.9 mph46%30.32 "Hg10 mi
Weather by CustomWeather, © 2014

See weather overview